This demonstration page uses our WeatherBlox Daily Observations layout. Learn more.

Left ArrowRight Arrow

Hourly Observations for April 15, 2017

Temp ( °F °C ) Dew Point ( °F °C ) Humidity (%) Winds ( mph kmh ) Pressure ( in mb ) Visibility ( mi km ) Precip ( " mm )
12:59 am 00:59 Mostly Cloudy 57 13.9 45 7.2 64 64 E 7 11 30.37 1029 10 16 0.00 0.00
1:59 am 01:59 Mostly Cloudy 58 14.4 43 6.1 58 58 E 7 11 30.37 1028 10 16 0.00 0.00
2:59 am 02:59 Cloudy 58 14.4 44 6.7 60 60 ESE 8 13 30.36 1028 10 16 0.00 0.00
3:59 am 03:59 Mostly Cloudy 58 14.4 44 6.7 60 60 ESE 9 15 30.35 1028 10 16 0.00 0.00
4:15 am 04:15 Cloudy 57 13.9 45 7.2 64 64 ESE 7 11 30.36 1028 10 16 0.00 0.00
4:45 am 04:45 Mostly Cloudy 58 14.4 44 6.7 60 60 ESE 7 11 30.36 1028 10 16 0.00 0.00
4:59 am 04:59 Mostly Cloudy 58 14.4 45 7.2 62 62 ESE 7 11 30.35 1028 10 16 0.00 0.00
5:59 am 05:59 Cloudy 58 14.4 47 8.3 67 67 SSE 5 7 30.35 1028 10 16 0.00 0.03
6:59 am 06:59 Cloudy with Light Rain 57 13.9 50 10 78 78 ESE 8 13 30.36 1028 5 8 0.01 0.25
7:59 am 07:59 Cloudy 57 13.9 53 11.7 87 87 SE 7 11 30.37 1028 10 16 0.00 0.03
8:59 am 08:59 Mostly Cloudy 61 16.1 57 13.9 87 87 S 8 13 30.36 1028 9 14 0.00 0.00
9:59 am 09:59 Mostly Cloudy 67 19.4 60 15.6 79 79 S 7 11 30.36 1028 10 16 0.00 0.00
10:59 am 10:59 Partly Cloudy 72 22.2 61 16.1 68 68 S 12 19 30.35 1028 10 16 0.00 0.00
11:59 am 11:59 Mostly Sunny 75 23.9 60 15.6 60 60 SSW 12 19 30.32 1027 10 16 0.00 0.00
1:59 pm 13:59 Mostly Sunny 80 26.7 58 14.4 47 47 SSW 12 19 30.27 1025 10 16 0.00 0.00
2:59 pm 14:59 Mostly Sunny 81 27.2 57 13.9 44 44 SW 15 24 30.24 1024 10 16 0.00 0.00
3:59 pm 15:59 Partly Cloudy 80 26.7 57 13.9 45 45 SSW 10 17 30.22 1023 10 16 0.00 0.00
4:59 pm 16:59 Partly Cloudy 81 27.2 59 15 47 47 SSW 14 22 30.20 1023 10 16 0.00 0.00
5:59 pm 17:59 Partly Cloudy 80 26.7 57 13.9 45 45 SSW 14 22 30.19 1022 10 16 0.00 0.00
6:59 pm 18:59 Mostly Cloudy 78 25.6 57 13.9 48 48 S 9 15 30.19 1022 10 16 0.00 0.00
7:59 pm 19:59 Mostly Cloudy 74 23.3 61 16.1 64 64 S 12 19 30.20 1023 10 16 0.00 0.00
8:59 pm 20:59 Mostly Cloudy 72 22.2 61 16.1 68 68 S 9 15 30.22 1023 10 16 0.00 0.00
9:59 pm 21:59 Mostly Cloudy 71 21.7 61 16.1 71 71 S 12 19 30.22 1024 10 16 0.00 0.00
10:59 pm 22:59 Cloudy 70 21.1 61 16.1 73 73 SSW 10 17 30.22 1024 10 16 0.00 0.00
11:59 pm 23:59 Mostly Cloudy 69 20.6 60 15.6 73 73 SSW 10 17 30.22 1023 10 16 0.00 0.00

Powered by AerisWeather